Simultaneous Nadir Overpasses (SNOs) Predictions

Prediction of SNOs between GOES-17 and NOAA-19 Satellite Orbit:

Table of predicted SNOs for the next 14.0 days since TLE Epoch: 12/31/2023
Index Date Time (GOES-17) GOES-17 Lat,Lon NOAA-19 Lat,Lon Distance(km) Time Diff (sec)
1 12/31/2023 15:52:31 0.02,-104.68 -0.32,-103.18 171.57 80
2 01/03/2024 04:12:27 -0.02,-104.66 -0.75,-107.92 371.46 80
3 01/04/2024 04:00:17 -0.02,-104.66 -0.11,-104.95 33.77 80
4 01/05/2024 03:45:27 -0.02,-104.66 0.60,-102.00 303.96 80
5 01/07/2024 16:05:08 -0.01,-104.68 0.44,-106.69 228.95 80
6 01/08/2024 15:55:39 -0.01,-104.67 -0.25,-103.73 108.53 80
7 01/09/2024 15:43:28 -0.01,-104.67 -0.89,-100.76 445.89 80
8 01/11/2024 04:15:32 0.00,-104.65 -0.85,-108.46 434.16 80
9 01/12/2024 04:03:21 -0.00,-104.64 -0.19,-105.49 96.81 80
10 01/13/2024 03:48:31 -0.01,-104.63 0.48,-102.52 240.65 80
